FW8921 Weather Reports


Display with metric or nautical units.
time (UTC)temp
F
wind
direction
speed
MPH
gust
MPH
rain 1hr
in
rain 24hr
in
rain mn
in
humidity
%
barometer
mb
20260510225501 64 257 0.0 2.0 0.00 0.15 0.00 67 1013.0
20260510225003 64 286 0.0 3.0 0.00 0.16 0.00 65 1012.9
20260510224506 64 271 0.0 3.0 0.00 0.16 0.00 65 1012.9
20260510224002 64 262 0.0 4.0 0.00 0.17 0.00 66 1013.0
20260510223505 64 197 0.0 4.0 0.00 0.17 0.00 65 1013.0
20260510223012 64 226 0.0 4.0 0.00 0.18 0.00 66 1013.0
20260510222507 64 197 0.0 1.0 0.00 0.18 0.00 66 1012.9
20260510222005 64 244 0.0 7.0 0.00 0.18 0.00 66 1012.9
20260510221511 64 269 0.0 7.0 0.00 0.19 0.00 66 1012.8
20260510221006 65 263 0.0 7.0 0.00 0.20 0.00 67 1012.7
20260510220506 65 281 1.0 7.0 0.00 0.20 0.00 68 1012.8
20260510220014 65 226 0.0 5.0 0.00 0.20 0.00 67 1012.8
20260510215505 66 252 0.0 8.0 0.00 0.20 0.00 67 1012.6
20260510215002 66 269 0.0 8.0 0.00 0.20 0.00 68 1012.5
20260510214506 65 296 1.0 6.0 0.00 0.20 0.00 69 1012.5
20260510214006 65 239 0.0 10.0 0.00 0.21 0.00 71 1012.4
20260510213507 65 157 3.0 10.0 0.00 0.21 0.00 71 1012.3
20260510213008 65 278 0.0 5.0 0.00 0.22 0.00 72 1012.3
20260510212502 65 238 1.0 8.0 0.00 0.24 0.00 72 1012.5
20260510212006 65 245 0.0 8.0 0.00 0.25 0.00 71 1012.5
20260510211518 65 176 2.0 8.0 0.00 0.25 0.00 73 1012.6
20260510211006 65 215 0.0 5.0 0.00 0.27 0.00 73 1012.6
20260510210506 65 190 1.0 6.0 0.00 0.28 0.00 72 1012.5
20260510210016 65 224 0.0 6.0 0.00 0.30 0.00 72 1012.4
20260510205505 66 195 0.0 8.0 0.00 0.38 0.00 72 1012.2
20260510205007 66 194 0.0 8.0 0.00 0.38 0.00 73 1012.1
20260510204518 66 188 0.0 7.0 0.00 0.39 0.00 73 1012.1
20260510204006 66 157 2.0 9.0 0.00 0.39 0.00 72 1012.1
20260510203507 66 164 1.0 11.0 0.00 0.39 0.00 72 1012.1
20260510203017 66 189 1.0 11.0 0.00 0.39 0.00 71 1012.0
20260510202505 67 195 1.0 9.0 0.00 0.40 0.00 71 1012.0
20260510202006 67 146 1.0 9.0 0.00 0.40 0.00 70 1011.9
20260510201512 67 175 2.0 9.0 0.00 0.40 0.00 68 1011.9
20260510201005 67 196 0.0 4.0 0.00 0.41 0.00 69 1011.9
20260510200506 67 265 0.0 8.0 0.00 0.45 0.00 68 1012.0
20260510200039 68 159 0.0 10.0 0.00 0.52 0.00 66 1012.1
20260510195505 68 200 1.0 10.0 0.00 0.61 0.00 66 1012.0
20260510195006 68 217 0.0 9.0 0.00 0.63 0.00 66 1012.0
20260510194517 68 234 0.0 10.0 0.00 0.72 0.00 66 1012.0
20260510194007 68 146 3.0 10.0 0.00 0.79 0.00 68 1011.9
20260510193508 68 157 0.0 8.0 0.00 0.80 0.00 70 1011.9
20260510193033 68 180 0.0 11.0 0.00 0.82 0.00 71 1011.9
20260510192507 69 190 2.0 11.0 0.00 0.85 0.00 67 1012.0
20260510192007 69 256 0.0 7.0 0.00 0.86 0.00 68 1012.0
20260510191519 68 186 2.0 10.0 0.00 0.87 0.00 67 1012.0
20260510191007 68 236 1.0 10.0 0.00 0.87 0.00 68 1012.1
20260510190503 69 195 3.0 10.0 0.00 0.87 0.00 67 1012.2
20260510190023 69 198 2.0 8.0 0.00 0.87 0.00 68 1012.3
20260510185506 69 168 1.0 13.0 0.00 0.87 0.00 69 1012.4
20260510185006 68 146 3.0 13.0 0.00 0.87 0.00 68 1012.3
20260510184518 68 133 3.0 13.0 0.00 0.87 0.00 69 1012.2
20260510184007 68 196 5.0 11.0 0.00 0.87 0.00 69 1012.4
20260510183508 68 187 0.0 11.0 0.00 0.87 0.00 70 1012.5
20260510183039 68 191 4.0 11.0 0.00 0.87 0.00 70 1012.7
20260510182506 68 150 1.0 8.0 0.00 0.87 0.00 72 1012.5
20260510182014 67 244 0.0 11.0 0.00 0.87 0.00 69 1012.5
20260510181527 67 252 3.0 11.0 0.00 0.87 0.00 68 1012.5
20260510181007 68 214 2.0 13.0 0.00 0.87 0.00 69 1012.4
20260510180507 68 249 2.0 13.0 0.00 0.87 0.00 69 1012.6
20260510180012 68 178 0.0 12.0 0.00 0.87 0.00 77 1012.5
20260510175506 68 138 5.0 12.0 0.00 0.87 0.00 73 1012.6
20260510175008 67 180 0.0 8.0 0.00 0.87 0.00 75 1012.5
20260510174517 66 225 0.0 9.0 0.00 0.87 0.00 75 1012.5
20260510174011 66 224 0.0 9.0 0.00 0.87 0.00 74 1012.5
20260510173508 66 199 2.0 9.0 0.00 0.87 0.00 74 1012.5
20260510173022 66 166 0.0 9.0 0.00 0.87 0.00 76 1012.5
20260510172508 66 179 0.0 1.0 0.00 0.87 0.00 76 1012.6
20260510172013 65 212 0.0 7.0 0.00 0.87 0.00 78 1012.7
20260510171520 65 200 0.0 7.0 0.00 0.87 0.00 77 1012.7
20260510171006 65 223 1.0 7.0 0.00 0.87 0.00 79 1012.7
20260510170506 64 219 0.0 8.0 0.00 0.87 0.00 79 1012.8
20260510170023 64 163 1.0 9.0 0.00 0.87 0.00 78 1012.9
20260510165506 64 194 1.0 9.0 0.00 0.87 0.00 77 1012.9
20260510165009 64 175 2.0 9.0 0.00 0.87 0.00 78 1013.0
20260510164514 64 200 0.0 4.0 0.00 0.87 0.00 79 1013.0
20260510164007 64 180 0.0 8.0 0.00 0.87 0.00 81 1012.9
20260510163506 63 194 0.0 8.0 0.00 0.87 0.00 80 1012.9
20260510163021 63 186 0.0 7.0 0.00 0.87 0.00 79 1012.9
20260510162508 63 244 0.0 4.0 0.00 0.87 0.00 81 1012.9
20260510162009 63 202 0.0 0.0 0.00 0.87 0.00 83 1013.0
20260510161525 63 269 0.0 1.0 0.00 0.87 0.00 83 1013.0
20260510161011 62 271 0.0 1.0 0.00 0.87 0.00 84 1013.0
20260510160508 62 263 0.0 0.0 0.00 0.87 0.00 85 1013.0
20260510160027 61 182 0.0 1.0 0.00 0.87 0.00 88 1013.1
20260510155506 60 182 0.0 1.0 0.00 0.87 0.00 86 1013.2
20260510155008 60 172 0.0 1.0 0.00 0.87 0.00 86 1013.3
20260510154523 60 201 0.0 1.0 0.00 0.87 0.00 87 1013.3
20260510154008 60 201 0.0 1.0 0.00 0.87 0.00 86 1013.3
20260510153506 60 163 0.0 1.0 0.00 0.87 0.00 87 1013.3
20260510153036 59 177 0.0 1.0 0.00 0.87 0.00 88 1013.4
20260510152508 58 177 0.0 1.0 0.00 0.87 0.00 88 1013.5
20260510152006 58 179 0.0 0.0 0.00 0.87 0.00 89 1013.6
20260510151505 57 178 0.0 1.0 0.00 0.87 0.00 88 1013.5
20260510151005 57 178 0.0 3.0 0.00 0.87 0.00 88 1013.5
20260510150503 57 184 0.0 3.0 0.00 0.87 0.00 88 1013.5
20260510150006 56 213 0.0 3.0 0.00 0.87 0.00 89 1013.5
20260510145507 56 215 0.0 2.0 0.00 0.87 0.00 89 1013.5
20260510145012 56 215 0.0 2.0 0.00 0.87 0.00 90 1013.5
20260510144521 55 215 0.0 3.0 0.00 0.87 0.00 90 1013.5
20260510144009 55 215 0.0 3.0 0.00 0.87 0.00 90 1013.5
20260510143507 55 215 0.0 2.0 0.00 0.87 0.00 90 1013.5
20260510143012 55 215 0.0 2.0 0.00 0.87 0.00 90 1013.5
20260510142505 55 215 0.0 2.0 0.00 0.87 0.00 90 1013.5
20260510142004 55 215 0.0 1.0 0.00 0.87 0.00 90 1013.4
20260510141518 54 215 0.0 1.0 0.00 0.87 0.00 90 1013.3
20260510141006 54 215 0.0 1.0 0.00 0.87 0.00 90 1013.3
20260510140509 54 215 0.0 1.0 0.00 0.87 0.00 90 1013.2
20260510140021 54 215 0.0 3.0 0.00 0.87 0.00 90 1013.4
20260510135506 54 215 0.0 3.0 0.00 0.87 0.00 90 1013.5
20260510135003 54 215 0.0 1.0 0.00 0.87 0.00 90 1013.5
20260510134506 54 215 0.0 3.0 0.00 0.87 0.00 90 1013.5
20260510134004 54 215 1.0 3.0 0.00 0.87 0.00 91 1013.4
20260510133503 54 215 0.0 1.0 0.00 0.87 0.00 91 1013.4
20260510133036 54 215 0.0 0.0 0.00 0.87 0.00 91 1013.4
20260510132514 53 215 0.0 3.0 0.00 0.87 0.00 91 1013.4
20260510132012 53 215 0.0 3.0 0.00 0.87 0.00 91 1013.5
20260510131524 53 215 0.0 3.0 0.00 0.87 0.00 91 1013.5
20260510131008 53 215 1.0 5.0 0.00 0.87 0.00 91 1013.4
20260510130505 53 215 1.0 5.0 0.00 0.87 0.00 92 1013.5
20260510130026 53 196 0.0 3.0 0.00 0.87 0.00 92 1013.4
20260510125507 52 196 0.0 3.0 0.00 0.87 0.00 92 1013.3
20260510125009 52 195 0.0 4.0 0.00 0.87 0.00 92 1013.2
20260510124508 52 196 1.0 4.0 0.00 0.87 0.00 92 1013.0
20260510124003 52 200 0.0 4.0 0.00 0.87 0.00 92 1013.0
20260510123504 51 175 0.0 3.0 0.00 0.87 0.00 92 1013.0
20260510123028 51 175 0.0 2.0 0.00 0.87 0.00 92 1013.0
20260510122505 51 175 0.0 1.0 0.00 0.87 0.00 92 1012.8
20260510122003 51 175 0.0 1.0 0.00 0.87 0.00 92 1012.9
20260510121527 51 175 0.0 1.0 0.00 0.87 0.00 92 1012.9
20260510121006 51 175 0.0 0.0 0.00 0.87 0.00 92 1012.7
20260510120506 51 175 0.0 0.0 0.00 0.87 0.00 92 1012.8
20260510120022 51 175 0.0 1.0 0.00 0.87 0.00 92 1013.0
20260510115506 51 173 0.0 1.0 0.00 0.87 0.00 92 1013.0
20260510115009 51 173 0.0 3.0 0.00 0.87 0.00 92 1012.9
20260510114524 51 173 0.0 4.0 0.00 0.87 0.00 92 1013.0
20260510114010 51 173 0.0 4.0 0.00 0.87 0.00 92 1013.0
20260510113508 51 172 0.0 3.0 0.00 0.87 0.00 92 1012.9
20260510113005 50 172 0.0 4.0 0.00 0.87 0.00 92 1012.9
20260510112504 50 172 2.0 4.0 0.00 0.88 0.00 92 1012.9
20260510112004 50 19 0.0 1.0 0.00 0.88 0.00 92 1013.0
20260510111527 50 18 0.0 2.0 0.00 0.88 0.00 92 1013.0
20260510111003 50 17 0.0 3.0 0.00 0.88 0.00 92 1012.7
20260510110508 50 84 0.0 4.0 0.00 0.88 0.00 92 1012.7
20260510110020 50 84 0.0 5.0 0.00 0.88 0.00 92 1012.6
20260510105507 50 78 0.0 5.0 0.00 0.88 0.00 92 1012.2
20260510105008 50 177 0.0 4.0 0.00 0.89 0.00 92 1012.1
20260510104519 50 181 0.0 4.0 0.00 0.89 0.00 92 1012.5
20260510104006 50 180 1.0 4.0 0.00 0.89 0.00 92 1012.4
20260510103506 50 200 1.0 3.0 0.00 0.89 0.00 92 1012.5
20260510103024 50 202 1.0 3.0 0.00 0.89 0.00 92 1012.4
20260510102510 50 202 0.0 1.0 0.00 0.89 0.00 92 1012.5
20260510102006 49 202 0.0 1.0 0.00 0.89 0.00 92 1012.6
20260510101525 49 202 0.0 0.0 0.00 0.89 0.00 92 1012.6
20260510101004 49 202 0.0 0.0 0.00 0.89 0.00 92 1012.4
20260510100504 49 202 0.0 0.0 0.00 0.89 0.00 92 1012.4
20260510100012 50 202 0.0 0.0 0.00 0.90 0.00 92 1012.4
20260510095505 50 202 0.0 0.0 0.00 0.90 0.00 92 1012.7
20260510095004 50 202 0.0 0.0 0.00 0.90 0.00 92 1012.5
20260510094516 50 202 0.0 0.0 0.00 0.90 0.00 92 1012.6
20260510094007 50 202 0.0 0.0 0.00 0.90 0.00 92 1012.5
20260510093507 50 202 0.0 1.0 0.00 0.90 0.00 92 1012.4
20260510093022 50 202 0.0 1.0 0.00 0.90 0.00 92 1012.6
20260510092507 50 202 0.0 0.0 0.00 0.90 0.00 92 1012.7
20260510092009 50 202 0.0 0.0 0.00 0.90 0.00 92 1012.7
20260510091524 50 202 0.0 0.0 0.00 0.91 0.00 92 1012.7
20260510091006 50 202 0.0 0.0 0.00 0.91 0.00 92 1012.7
20260510090517 50 202 0.0 0.0 0.00 0.91 0.00 92 1012.5
20260510090029 50 202 0.0 0.0 0.00 0.91 0.00 92 1012.4
20260510085503 50 202 0.0 0.0 0.00 0.91 0.00 92 1012.3
20260510085003 50 202 0.0 2.0 0.00 0.91 0.00 92 1012.3
20260510084514 50 202 0.0 2.0 0.00 0.91 0.00 92 1012.2
20260510084011 50 202 0.0 0.0 0.00 0.91 0.00 92 1012.2
20260510083511 50 202 0.0 0.0 0.00 0.91 0.00 92 1012.1
20260510083018 50 202 0.0 0.0 0.00 0.91 0.00 92 1012.0
20260510082510 50 202 0.0 0.0 0.00 0.91 0.00 92 1012.0
20260510082008 50 202 0.0 0.0 0.00 0.91 0.00 92 1011.9
20260510081524 50 202 0.0 0.0 0.00 0.91 0.00 92 1011.8
20260510081007 50 202 0.0 0.0 0.00 0.91 0.00 92 1011.8
20260510080508 50 202 0.0 0.0 0.00 0.91 0.00 92 1011.8
20260510080025 50 202 0.0 0.0 0.00 0.91 0.00 92 1011.9
20260510075509 50 202 0.0 0.0 0.00 0.91 0.00 92 1012.0
20260510075009 50 202 0.0 0.0 0.00 0.91 0.00 92 1012.0
20260510074528 50 202 0.0 0.0 0.00 0.91 0.00 92 1012.0
20260510074003 50 202 0.0 0.0 0.00 0.91 0.00 92 1012.0
20260510073511 50 202 0.0 0.0 0.00 0.91 0.00 92 1012.0
20260510073012 50 202 0.0 0.0 0.00 0.91 0.00 92 1012.1
20260510072505 50 202 0.0 0.0 0.00 0.91 0.00 92 1012.1
20260510072005 50 202 0.0 0.0 0.00 0.91 0.00 92 1012.1
20260510071529 50 202 0.0 0.0 0.00 0.91 0.00 92 1012.0
20260510071005 50 202 0.0 0.0 0.00 0.91 0.00 92 1012.0
20260510070506 50 202 0.0 0.0 0.00 0.91 0.00 92 1012.0
20260510070026 50 202 0.0 0.0 0.00 0.91 0.00 92 1011.9
20260510065507 50 202 0.0 0.0 0.00 0.91 0.00 92 1011.8
20260510065010 50 202 0.0 0.0 0.00 0.91 0.00 92 1011.7
20260510064531 50 202 0.0 0.0 0.00 0.91 0.00 92 1011.6
20260510064008 50 202 0.0 0.0 0.00 0.91 0.00 92 1011.7
20260510063508 50 202 0.0 0.0 0.00 0.91 0.00 92 1011.6
20260510063037 50 202 0.0 0.0 0.00 0.91 0.00 92 1011.6
20260510062507 50 202 0.0 0.0 0.00 0.91 0.00 92 1011.6
20260510062007 50 202 0.0 0.0 0.00 0.91 0.00 92 1011.6
20260510061517 50 202 0.0 0.0 0.00 0.91 0.00 92 1011.6
20260510061006 50 202 0.0 0.0 0.00 0.91 0.00 92 1011.5
20260510060507 50 202 0.0 0.0 0.00 0.91 0.00 92 1011.5
20260510060023 50 202 0.0 0.0 0.00 0.91 0.00 92 1011.5
20260510055506 50 202 0.0 0.0 0.00 0.91 0.00 92 1011.5
20260510055006 50 202 0.0 0.0 0.00 0.91 0.00 92 1011.6
20260510054526 50 202 0.0 0.0 0.00 0.91 0.00 92 1011.7
20260510054007 50 202 0.0 0.0 0.00 0.91 0.00 92 1011.7
20260510053511 50 202 0.0 0.0 0.00 0.91 0.00 92 1011.6
20260510053027 50 202 0.0 0.0 0.00 0.91 0.00 92 1011.7
20260510052512 50 202 0.0 0.0 0.00 0.91 0.00 92 1011.8
20260510052009 50 202 0.0 0.0 0.00 0.91 0.00 92 1011.9
20260510051531 50 202 0.0 0.0 0.00 0.91 0.00 92 1012.0
20260510051009 50 202 0.0 0.0 0.00 0.91 0.00 92 1011.9
20260510050508 50 202 0.0 0.0 0.00 0.91 0.00 92 1011.8
20260510050022 50 202 0.0 0.0 0.00 0.91 0.00 92 1011.8
20260510045509 50 202 0.0 0.0 0.00 0.91 0.00 92 1011.8
20260510045011 50 202 0.0 0.0 0.00 0.91 0.00 92 1011.6
20260510044523 50 202 0.0 0.0 0.00 0.91 0.00 92 1011.4
20260510044008 50 202 0.0 0.0 0.00 0.91 0.00 92 1011.5
20260510043507 50 202 0.0 0.0 0.00 0.91 0.00 92 1011.6
20260510043026 50 202 0.0 0.0 0.00 0.91 0.00 92 1011.5
20260510042506 50 202 0.0 0.0 0.00 0.91 0.00 92 1011.5
20260510042001 50 202 0.0 0.0 0.00 0.91 0.00 92 1011.6
20260510041510 50 202 0.0 0.0 0.00 0.91 0.00 92 1011.7
20260510041005 50 202 0.0 0.0 0.00 0.91 0.00 92 1011.7
20260510040505 50 202 0.0 0.0 0.00 0.91 0.00 92 1011.6
20260510040019 50 202 0.0 0.0 0.00 0.91 0.00 91 1011.5
20260510035509 50 202 0.0 0.0 0.00 0.91 0.91 92 1011.4
20260510035006 50 202 0.0 0.0 0.00 0.91 0.91 91 1011.5
20260510034531 50 202 0.0 0.0 0.00 0.91 0.91 91 1011.5
20260510034006 50 202 0.0 0.0 0.00 0.91 0.91 91 1011.5
20260510033511 50 202 0.0 0.0 0.00 0.91 0.91 91 1011.5
20260510033004 50 202 0.0 0.0 0.00 0.91 0.91 91 1011.7
20260510032503 50 202 0.0 0.0 0.00 0.91 0.91 91 1011.8
20260510032001 50 202 0.0 0.0 0.00 0.91 0.91 91 1011.7
20260510031516 50 202 0.0 0.0 0.00 0.91 0.91 91 1011.6
20260510031002 50 202 0.0 0.0 0.00 0.91 0.91 91 1011.4
20260510030504 50 202 0.0 0.0 0.00 0.91 0.91 91 1011.3
20260510030013 50 202 0.0 0.0 0.00 0.91 0.91 91 1011.3
20260510025505 50 202 0.0 0.0 0.00 0.91 0.91 91 1011.3
20260510025006 50 202 0.0 0.0 0.00 0.91 0.91 91 1011.4
20260510024516 50 202 0.0 0.0 0.00 0.91 0.91 91 1011.4
20260510024010 50 202 0.0 0.0 0.00 0.91 0.91 91 1011.6
20260510023506 50 202 0.0 0.0 0.00 0.91 0.91 91 1011.6
20260510023022 50 202 0.0 0.0 0.00 0.91 0.91 91 1011.8
20260510022508 50 202 0.0 0.0 0.00 0.91 0.91 91 1011.8
20260510022002 50 202 0.0 0.0 0.01 0.91 0.91 91 1011.8
20260510021505 50 202 0.0 0.0 0.01 0.91 0.91 91 1011.8
20260510021005 50 202 0.0 0.0 0.01 0.91 0.91 91 1011.8
20260510020504 50 202 0.0 4.0 0.01 0.91 0.91 91 1011.7
20260510020010 50 202 0.0 4.0 0.01 0.91 0.91 91 1011.8
20260510015504 50 202 0.0 4.0 0.01 0.91 0.91 91 1011.8
20260510015010 50 202 0.0 2.0 0.01 0.91 0.91 91 1011.7
20260510014517 51 202 0.0 5.0 0.01 0.91 0.91 91 1011.7
20260510014005 51 190 0.0 5.0 0.02 0.91 0.91 91 1011.7
20260510013507 51 190 0.0 5.0 0.02 0.91 0.91 91 1011.7
20260510013020 51 157 0.0 3.0 0.02 0.91 0.91 91 1011.7
20260510012506 51 44 0.0 3.0 0.02 0.91 0.91 91 1011.6
20260510012006 51 192 0.0 5.0 0.02 0.90 0.90 91 1011.6
20260510011522 51 190 0.0 5.0 0.02 0.90 0.90 91 1011.5
20260510011008 51 190 0.0 5.0 0.03 0.90 0.90 91 1011.6
20260510010507 51 171 0.0 9.0 0.04 0.90 0.90 91 1011.7
20260510010028 52 171 1.0 9.0 0.05 0.90 0.90 91 1011.8
20260510005504 52 197 0.0 2.0 0.06 0.90 0.90 91 1011.7
20260510005004 52 202 0.0 2.0 0.06 0.90 0.90 91 1011.6
20260510004510 52 191 0.0 10.0 0.06 0.90 0.90 91 1011.6
20260510004004 52 188 0.0 10.0 0.06 0.89 0.89 91 1011.7
20260510003506 52 200 0.0 3.0 0.06 0.89 0.89 91 1011.7
20260510003018 52 221 0.0 0.0 0.07 0.89 0.89 91 1011.7
20260510002506 52 221 0.0 1.0 0.08 0.89 0.89 91 1011.7
20260510002007 52 221 0.0 1.0 0.08 0.88 0.88 91 1011.7
20260510001529 52 224 0.0 1.0 0.09 0.88 0.88 91 1011.7
20260510001007 52 224 0.0 2.0 0.09 0.87 0.87 91 1011.8
20260510000508 52 198 0.0 2.0 0.09 0.86 0.86 91 1011.8
20260510000025 52 158 0.0 1.0 0.09 0.85 0.85 91 1011.9
20260509235510 52 113 0.0 1.0 0.08 0.84 0.84 91 1011.9
20260509235009 52 188 0.0 0.0 0.09 0.84 0.84 91 1011.9
20260509234510 52 188 0.0 0.0 0.09 0.84 0.84 91 1011.8
20260509234004 52 188 0.0 0.0 0.09 0.83 0.83 91 1011.8
20260509233503 52 188 0.0 0.0 0.09 0.83 0.83 91 1011.8
20260509233016 52 188 0.0 2.0 0.09 0.82 0.82 90 1011.9
20260509232506 52 188 0.0 2.0 0.08 0.81 0.81 90 1011.9
20260509232008 52 188 0.0 0.0 0.07 0.80 0.80 90 1012.0
20260509231528 52 188 0.0 0.0 0.07 0.79 0.79 90 1012.0
20260509231007 52 202 0.0 0.0 0.07 0.78 0.78 90 1012.0
20260509230507 52 202 0.0 3.0 0.06 0.77 0.77 90 1012.1
20260509230023 52 202 0.0 3.0 0.05 0.76 0.76 90 1012.1